<?xml version="1.0" encoding="UTF-8" standalone="no" ?>
<gpx xmlns="http://www.topografix.com/GPX/1/1" xmlns:xsi="http://www.w3.org/2001/XMLSchema-instance" xsi:schemaLocation="http://www.topografix.com/GPX/1/1 http://www.topografix.com/GPX/1/1/gpx.xsd" version="1.1" creator="VisuGPX - https://www.visugpx.com">
  <metadata>
    <name>RANDO VALSONNE_9KM</name>
    <desc><![CDATA[Randonnée pédestre du sous des écoles de Valsonne le 16 Janvier 2022
]]></desc>
  </metadata>
  <wpt lat="45.96311" lon="4.40979">
    <ele>536.1</ele>
    <name><![CDATA[Relai du bouillon]]></name>
    <type><![CDATA[restaurant]]></type>
  </wpt>
  <trk>
    <name><![CDATA[RANDO 9KM 402D  on edp-parcours.com]]></name>
    <extensions>
      <line xmlns="http://www.topografix.com/GPX/gpx_style/0/2">
        <color>0000ff</color>
        <opacity>1</opacity>
        <width>7</width>
      </line>
    </extensions>
    <trkseg>
      <trkpt lat="45.94648" lon="4.43091">
        <ele>479.4</ele>
        <time>2021-12-16T22:09:25Z</time>
      </trkpt>
      <trkpt lat="45.94645" lon="4.43091">
        <ele>479</ele>
        <time>2021-12-16T22:09:33Z</time>
      </trkpt>
      <trkpt lat="45.94603" lon="4.43261">
        <ele>488.4</ele>
        <time>2021-12-16T22:09:36Z</time>
      </trkpt>
      <trkpt lat="45.94597" lon="4.43266">
        <ele>487.8</ele>
        <time>2021-12-16T22:09:52Z</time>
      </trkpt>
      <trkpt lat="45.94581" lon="4.43306">
        <ele>487.5</ele>
        <time>2021-12-16T22:10:11Z</time>
      </trkpt>
      <trkpt lat="45.94579" lon="4.43308">
        <ele>487.1</ele>
        <time>2021-12-16T22:10:28Z</time>
      </trkpt>
      <trkpt lat="45.94577" lon="4.43302">
        <ele>486.1</ele>
        <time>2021-12-16T22:10:38Z</time>
      </trkpt>
      <trkpt lat="45.9458" lon="4.43286">
        <ele>485.6</ele>
        <time>2021-12-16T22:10:48Z</time>
      </trkpt>
      <trkpt lat="45.9458" lon="4.43279">
        <ele>485</ele>
        <time>2021-12-16T22:11:04Z</time>
      </trkpt>
      <trkpt lat="45.94572" lon="4.43258">
        <ele>480.9</ele>
        <time>2021-12-16T22:11:12Z</time>
      </trkpt>
      <trkpt lat="45.94541" lon="4.43333">
        <ele>477.8</ele>
        <time>2021-12-16T22:11:27Z</time>
      </trkpt>
      <trkpt lat="45.94529" lon="4.43379">
        <ele>474.1</ele>
        <time>2021-12-16T22:11:36Z</time>
      </trkpt>
      <trkpt lat="45.94527" lon="4.43386">
        <ele>473</ele>
        <time>2021-12-16T22:11:56Z</time>
      </trkpt>
      <trkpt lat="45.94529" lon="4.43398">
        <ele>471.5</ele>
        <time>2021-12-16T22:11:58Z</time>
      </trkpt>
      <trkpt lat="45.94555" lon="4.43462">
        <ele>467.9</ele>
        <time>2021-12-16T22:12:17Z</time>
      </trkpt>
      <trkpt lat="45.94563" lon="4.43503">
        <ele>463</ele>
        <time>2021-12-16T22:12:30Z</time>
      </trkpt>
      <trkpt lat="45.94583" lon="4.43538">
        <ele>462.7</ele>
        <time>2021-12-16T22:12:37Z</time>
      </trkpt>
      <trkpt lat="45.94597" lon="4.43556">
        <ele>462.5</ele>
        <time>2021-12-16T22:12:55Z</time>
      </trkpt>
      <trkpt lat="45.94617" lon="4.43576">
        <ele>463.6</ele>
        <time>2021-12-16T22:13:01Z</time>
      </trkpt>
      <trkpt lat="45.94643" lon="4.43623">
        <ele>464</ele>
        <time>2021-12-16T22:13:08Z</time>
      </trkpt>
      <trkpt lat="45.94662" lon="4.43638">
        <ele>465.7</ele>
        <time>2021-12-16T22:13:11Z</time>
      </trkpt>
      <trkpt lat="45.94683" lon="4.43664">
        <ele>467.7</ele>
        <time>2021-12-16T22:13:14Z</time>
      </trkpt>
      <trkpt lat="45.94687" lon="4.43672">
        <ele>467.9</ele>
        <time>2021-12-16T22:13:16Z</time>
      </trkpt>
      <trkpt lat="45.94687" lon="4.43675">
        <ele>468.1</ele>
        <time>2021-12-16T22:13:22Z</time>
      </trkpt>
      <trkpt lat="45.94684" lon="4.4368">
        <ele>468.3</ele>
        <time>2021-12-16T22:13:37Z</time>
      </trkpt>
      <trkpt lat="45.94672" lon="4.4368">
        <ele>468.8</ele>
        <time>2021-12-16T22:13:55Z</time>
      </trkpt>
      <trkpt lat="45.94627" lon="4.43684">
        <ele>475.5</ele>
        <time>2021-12-16T22:14:13Z</time>
      </trkpt>
      <trkpt lat="45.94591" lon="4.43684">
        <ele>482</ele>
        <time>2021-12-16T22:14:24Z</time>
      </trkpt>
      <trkpt lat="45.94526" lon="4.4367">
        <ele>487.6</ele>
        <time>2021-12-16T22:14:35Z</time>
      </trkpt>
      <trkpt lat="45.9452" lon="4.43668">
        <ele>488.1</ele>
        <time>2021-12-16T22:14:39Z</time>
      </trkpt>
      <trkpt lat="45.94521" lon="4.43658">
        <ele>486.2</ele>
        <time>2021-12-16T22:14:41Z</time>
      </trkpt>
      <trkpt lat="45.94509" lon="4.43607">
        <ele>477.3</ele>
        <time>2021-12-16T22:14:56Z</time>
      </trkpt>
      <trkpt lat="45.94489" lon="4.43572">
        <ele>471.7</ele>
        <time>2021-12-16T22:15:06Z</time>
      </trkpt>
      <trkpt lat="45.94446" lon="4.43512">
        <ele>460.8</ele>
        <time>2021-12-16T22:15:11Z</time>
      </trkpt>
      <trkpt lat="45.94415" lon="4.4346">
        <ele>451.5</ele>
        <time>2021-12-16T22:15:15Z</time>
      </trkpt>
      <trkpt lat="45.94389" lon="4.43434">
        <ele>447.1</ele>
        <time>2021-12-16T22:15:28Z</time>
      </trkpt>
      <trkpt lat="45.94361" lon="4.43411">
        <ele>442.5</ele>
        <time>2021-12-16T22:15:37Z</time>
      </trkpt>
      <trkpt lat="45.94343" lon="4.43424">
        <ele>442.6</ele>
        <time>2021-12-16T22:15:43Z</time>
      </trkpt>
      <trkpt lat="45.94347" lon="4.43422">
        <ele>442.6</ele>
        <time>2021-12-16T22:16:00Z</time>
      </trkpt>
      <trkpt lat="45.94343" lon="4.43408">
        <ele>439.8</ele>
        <time>2021-12-16T22:16:10Z</time>
      </trkpt>
      <trkpt lat="45.94364" lon="4.43326">
        <ele>437.7</ele>
        <time>2021-12-16T22:16:23Z</time>
      </trkpt>
      <trkpt lat="45.94373" lon="4.433">
        <ele>437</ele>
        <time>2021-12-16T22:16:34Z</time>
      </trkpt>
      <trkpt lat="45.94386" lon="4.43288">
        <ele>438</ele>
        <time>2021-12-16T22:16:54Z</time>
      </trkpt>
      <trkpt lat="45.94431" lon="4.43229">
        <ele>442.6</ele>
        <time>2021-12-16T22:16:56Z</time>
      </trkpt>
      <trkpt lat="45.9444" lon="4.43217">
        <ele>443.9</ele>
        <time>2021-12-16T22:17:09Z</time>
      </trkpt>
      <trkpt lat="45.94438" lon="4.43212">
        <ele>443.2</ele>
        <time>2021-12-16T22:17:14Z</time>
      </trkpt>
      <trkpt lat="45.94439" lon="4.43195">
        <ele>442.9</ele>
        <time>2021-12-16T22:17:23Z</time>
      </trkpt>
      <trkpt lat="45.94447" lon="4.43165">
        <ele>442.3</ele>
        <time>2021-12-16T22:17:41Z</time>
      </trkpt>
      <trkpt lat="45.94455" lon="4.43144">
        <ele>441.7</ele>
        <time>2021-12-16T22:17:55Z</time>
      </trkpt>
      <trkpt lat="45.94475" lon="4.43114">
        <ele>442.2</ele>
        <time>2021-12-16T22:17:57Z</time>
      </trkpt>
      <trkpt lat="45.9451" lon="4.43052">
        <ele>442.9</ele>
        <time>2021-12-16T22:18:16Z</time>
      </trkpt>
      <trkpt lat="45.9454" lon="4.43005">
        <ele>443.2</ele>
        <time>2021-12-16T22:18:30Z</time>
      </trkpt>
      <trkpt lat="45.94579" lon="4.42932">
        <ele>444.5</ele>
        <time>2021-12-16T22:18:36Z</time>
      </trkpt>
      <trkpt lat="45.9464" lon="4.42856">
        <ele>444.9</ele>
        <time>2021-12-16T22:18:40Z</time>
      </trkpt>
      <trkpt lat="45.94644" lon="4.42844">
        <ele>444.8</ele>
        <time>2021-12-16T22:18:45Z</time>
      </trkpt>
      <trkpt lat="45.94652" lon="4.42838">
        <ele>445.1</ele>
        <time>2021-12-16T22:18:48Z</time>
      </trkpt>
      <trkpt lat="45.94667" lon="4.42842">
        <ele>446.3</ele>
        <time>2021-12-16T22:18:59Z</time>
      </trkpt>
      <trkpt lat="45.94674" lon="4.42851">
        <ele>447.6</ele>
        <time>2021-12-16T22:19:11Z</time>
      </trkpt>
      <trkpt lat="45.94717" lon="4.42799">
        <ele>448.6</ele>
        <time>2021-12-16T22:19:14Z</time>
      </trkpt>
      <trkpt lat="45.94759" lon="4.42763">
        <ele>450.2</ele>
        <time>2021-12-16T22:19:34Z</time>
      </trkpt>
      <trkpt lat="45.94785" lon="4.42737">
        <ele>451.5</ele>
        <time>2021-12-16T22:19:46Z</time>
      </trkpt>
      <trkpt lat="45.94822" lon="4.42688">
        <ele>453.1</ele>
        <time>2021-12-16T22:19:48Z</time>
      </trkpt>
      <trkpt lat="45.94853" lon="4.42658">
        <ele>455.6</ele>
        <time>2021-12-16T22:19:51Z</time>
      </trkpt>
      <trkpt lat="45.9486" lon="4.42654">
        <ele>455.9</ele>
        <time>2021-12-16T22:20:10Z</time>
      </trkpt>
      <trkpt lat="45.94862" lon="4.42653">
        <ele>456.3</ele>
        <time>2021-12-16T22:20:18Z</time>
      </trkpt>
      <trkpt lat="45.94888" lon="4.42584">
        <ele>453.9</ele>
        <time>2021-12-16T22:20:29Z</time>
      </trkpt>
      <trkpt lat="45.94889" lon="4.42575">
        <ele>453.3</ele>
        <time>2021-12-16T22:20:39Z</time>
      </trkpt>
      <trkpt lat="45.94877" lon="4.42549">
        <ele>451.9</ele>
        <time>2021-12-16T22:20:48Z</time>
      </trkpt>
      <trkpt lat="45.94864" lon="4.42536">
        <ele>453</ele>
        <time>2021-12-16T22:20:52Z</time>
      </trkpt>
      <trkpt lat="45.94854" lon="4.42534">
        <ele>454.8</ele>
        <time>2021-12-16T22:21:10Z</time>
      </trkpt>
      <trkpt lat="45.94862" lon="4.42482">
        <ele>457.8</ele>
        <time>2021-12-16T22:21:29Z</time>
      </trkpt>
      <trkpt lat="45.94872" lon="4.42459">
        <ele>459</ele>
        <time>2021-12-16T22:21:42Z</time>
      </trkpt>
      <trkpt lat="45.94887" lon="4.42431">
        <ele>458.4</ele>
        <time>2021-12-16T22:21:52Z</time>
      </trkpt>
      <trkpt lat="45.94902" lon="4.424">
        <ele>459.2</ele>
        <time>2021-12-16T22:22:06Z</time>
      </trkpt>
      <trkpt lat="45.94907" lon="4.42383">
        <ele>459.4</ele>
        <time>2021-12-16T22:22:19Z</time>
      </trkpt>
      <trkpt lat="45.94909" lon="4.42368">
        <ele>459.8</ele>
        <time>2021-12-16T22:22:29Z</time>
      </trkpt>
      <trkpt lat="45.94909" lon="4.42351">
        <ele>460.8</ele>
        <time>2021-12-16T22:22:40Z</time>
      </trkpt>
      <trkpt lat="45.94902" lon="4.42272">
        <ele>463.9</ele>
        <time>2021-12-16T22:22:53Z</time>
      </trkpt>
      <trkpt lat="45.94899" lon="4.42253">
        <ele>465.2</ele>
        <time>2021-12-16T22:22:56Z</time>
      </trkpt>
      <trkpt lat="45.94889" lon="4.42219">
        <ele>468</ele>
        <time>2021-12-16T22:23:07Z</time>
      </trkpt>
      <trkpt lat="45.94883" lon="4.4219">
        <ele>470.8</ele>
        <time>2021-12-16T22:23:18Z</time>
      </trkpt>
      <trkpt lat="45.94878" lon="4.42157">
        <ele>471.1</ele>
        <time>2021-12-16T22:23:32Z</time>
      </trkpt>
      <trkpt lat="45.94872" lon="4.42135">
        <ele>471.5</ele>
        <time>2021-12-16T22:23:40Z</time>
      </trkpt>
      <trkpt lat="45.94848" lon="4.42102">
        <ele>474.2</ele>
        <time>2021-12-16T22:23:52Z</time>
      </trkpt>
      <trkpt lat="45.94841" lon="4.42087">
        <ele>475.1</ele>
        <time>2021-12-16T22:24:06Z</time>
      </trkpt>
      <trkpt lat="45.94834" lon="4.42066">
        <ele>476.9</ele>
        <time>2021-12-16T22:24:15Z</time>
      </trkpt>
      <trkpt lat="45.94829" lon="4.4204">
        <ele>481.4</ele>
        <time>2021-12-16T22:24:25Z</time>
      </trkpt>
      <trkpt lat="45.94833" lon="4.42041">
        <ele>481.8</ele>
        <time>2021-12-16T22:24:45Z</time>
      </trkpt>
      <trkpt lat="45.94838" lon="4.42044">
        <ele>482</ele>
        <time>2021-12-16T22:24:59Z</time>
      </trkpt>
      <trkpt lat="45.9486" lon="4.42062">
        <ele>480.9</ele>
        <time>2021-12-16T22:25:04Z</time>
      </trkpt>
      <trkpt lat="45.9487" lon="4.42066">
        <ele>481.1</ele>
        <time>2021-12-16T22:25:11Z</time>
      </trkpt>
      <trkpt lat="45.94884" lon="4.42064">
        <ele>483.2</ele>
        <time>2021-12-16T22:25:18Z</time>
      </trkpt>
      <trkpt lat="45.94898" lon="4.42053">
        <ele>485</ele>
        <time>2021-12-16T22:25:29Z</time>
      </trkpt>
      <trkpt lat="45.94925" lon="4.42013">
        <ele>487.6</ele>
        <time>2021-12-16T22:25:42Z</time>
      </trkpt>
      <trkpt lat="45.94936" lon="4.42002">
        <ele>488.6</ele>
        <time>2021-12-16T22:25:49Z</time>
      </trkpt>
      <trkpt lat="45.94947" lon="4.41996">
        <ele>489.1</ele>
        <time>2021-12-16T22:26:07Z</time>
      </trkpt>
      <trkpt lat="45.94968" lon="4.41992">
        <ele>488.7</ele>
        <time>2021-12-16T22:26:20Z</time>
      </trkpt>
      <trkpt lat="45.94973" lon="4.41988">
        <ele>489</ele>
        <time>2021-12-16T22:26:27Z</time>
      </trkpt>
      <trkpt lat="45.95" lon="4.41976">
        <ele>485.5</ele>
        <time>2021-12-16T22:26:35Z</time>
      </trkpt>
      <trkpt lat="45.95014" lon="4.41964">
        <ele>483.6</ele>
        <time>2021-12-16T22:26:44Z</time>
      </trkpt>
      <trkpt lat="45.9503" lon="4.41944">
        <ele>481.1</ele>
        <time>2021-12-16T22:26:57Z</time>
      </trkpt>
      <trkpt lat="45.95047" lon="4.41917">
        <ele>477.6</ele>
        <time>2021-12-16T22:27:02Z</time>
      </trkpt>
      <trkpt lat="45.95056" lon="4.41911">
        <ele>475.6</ele>
        <time>2021-12-16T22:27:20Z</time>
      </trkpt>
      <trkpt lat="45.95068" lon="4.41909">
        <ele>475.5</ele>
        <time>2021-12-16T22:27:31Z</time>
      </trkpt>
      <trkpt lat="45.95075" lon="4.41914">
        <ele>475.1</ele>
        <time>2021-12-16T22:27:50Z</time>
      </trkpt>
      <trkpt lat="45.95078" lon="4.4192">
        <ele>474.9</ele>
        <time>2021-12-16T22:28:06Z</time>
      </trkpt>
      <trkpt lat="45.95109" lon="4.41997">
        <ele>478.5</ele>
        <time>2021-12-16T22:28:21Z</time>
      </trkpt>
      <trkpt lat="45.95131" lon="4.41882">
        <ele>486.5</ele>
        <time>2021-12-16T22:28:25Z</time>
      </trkpt>
      <trkpt lat="45.95139" lon="4.41745">
        <ele>495.1</ele>
        <time>2021-12-16T22:28:36Z</time>
      </trkpt>
      <trkpt lat="45.95141" lon="4.41729">
        <ele>496.5</ele>
        <time>2021-12-16T22:28:50Z</time>
      </trkpt>
      <trkpt lat="45.95141" lon="4.41671">
        <ele>499.9</ele>
        <time>2021-12-16T22:29:03Z</time>
      </trkpt>
      <trkpt lat="45.95148" lon="4.41623">
        <ele>503.1</ele>
        <time>2021-12-16T22:29:05Z</time>
      </trkpt>
      <trkpt lat="45.95156" lon="4.41502">
        <ele>509.7</ele>
        <time>2021-12-16T22:29:20Z</time>
      </trkpt>
      <trkpt lat="45.95152" lon="4.4132">
        <ele>517.4</ele>
        <time>2021-12-16T22:29:24Z</time>
      </trkpt>
      <trkpt lat="45.95158" lon="4.41227">
        <ele>521.7</ele>
        <time>2021-12-16T22:29:31Z</time>
      </trkpt>
      <trkpt lat="45.95157" lon="4.41192">
        <ele>523.9</ele>
        <time>2021-12-16T22:29:36Z</time>
      </trkpt>
      <trkpt lat="45.95163" lon="4.41188">
        <ele>527.3</ele>
        <time>2021-12-16T22:29:48Z</time>
      </trkpt>
      <trkpt lat="45.95173" lon="4.41189">
        <ele>530</ele>
        <time>2021-12-16T22:30:00Z</time>
      </trkpt>
      <trkpt lat="45.95179" lon="4.41192">
        <ele>530.8</ele>
        <time>2021-12-16T22:30:15Z</time>
      </trkpt>
      <trkpt lat="45.95184" lon="4.41199">
        <ele>531.4</ele>
        <time>2021-12-16T22:30:18Z</time>
      </trkpt>
      <trkpt lat="45.95188" lon="4.4121">
        <ele>532.9</ele>
        <time>2021-12-16T22:30:34Z</time>
      </trkpt>
      <trkpt lat="45.95189" lon="4.41233">
        <ele>534.7</ele>
        <time>2021-12-16T22:30:54Z</time>
      </trkpt>
      <trkpt lat="45.95198" lon="4.41299">
        <ele>539.5</ele>
        <time>2021-12-16T22:31:03Z</time>
      </trkpt>
      <trkpt lat="45.95221" lon="4.41371">
        <ele>545.6</ele>
        <time>2021-12-16T22:31:05Z</time>
      </trkpt>
      <trkpt lat="45.95237" lon="4.41441">
        <ele>546.7</ele>
        <time>2021-12-16T22:31:19Z</time>
      </trkpt>
      <trkpt lat="45.95245" lon="4.41459">
        <ele>548.3</ele>
        <time>2021-12-16T22:31:22Z</time>
      </trkpt>
      <trkpt lat="45.95255" lon="4.41465">
        <ele>551.4</ele>
        <time>2021-12-16T22:31:31Z</time>
      </trkpt>
      <trkpt lat="45.95278" lon="4.4152">
        <ele>556.6</ele>
        <time>2021-12-16T22:31:47Z</time>
      </trkpt>
      <trkpt lat="45.95285" lon="4.41543">
        <ele>559.2</ele>
        <time>2021-12-16T22:31:57Z</time>
      </trkpt>
      <trkpt lat="45.95286" lon="4.41558">
        <ele>559.9</ele>
        <time>2021-12-16T22:32:15Z</time>
      </trkpt>
      <trkpt lat="45.95287" lon="4.41638">
        <ele>557.8</ele>
        <time>2021-12-16T22:32:29Z</time>
      </trkpt>
      <trkpt lat="45.9529" lon="4.41652">
        <ele>558.4</ele>
        <time>2021-12-16T22:32:38Z</time>
      </trkpt>
      <trkpt lat="45.95295" lon="4.41669">
        <ele>560.3</ele>
        <time>2021-12-16T22:32:55Z</time>
      </trkpt>
      <trkpt lat="45.95319" lon="4.41707">
        <ele>564.9</ele>
        <time>2021-12-16T22:33:11Z</time>
      </trkpt>
      <trkpt lat="45.95354" lon="4.41734">
        <ele>568.2</ele>
        <time>2021-12-16T22:33:21Z</time>
      </trkpt>
      <trkpt lat="45.95361" lon="4.41574">
        <ele>591</ele>
        <time>2021-12-16T22:33:34Z</time>
      </trkpt>
      <trkpt lat="45.95361" lon="4.41493">
        <ele>596.3</ele>
        <time>2021-12-16T22:33:52Z</time>
      </trkpt>
      <trkpt lat="45.95425" lon="4.41313">
        <ele>624.2</ele>
        <time>2021-12-16T22:33:59Z</time>
      </trkpt>
      <trkpt lat="45.95454" lon="4.41232">
        <ele>630.9</ele>
        <time>2021-12-16T22:34:10Z</time>
      </trkpt>
      <trkpt lat="45.95543" lon="4.41026">
        <ele>656</ele>
        <time>2021-12-16T22:34:22Z</time>
      </trkpt>
      <trkpt lat="45.95604" lon="4.40923">
        <ele>655.8</ele>
        <time>2021-12-16T22:34:38Z</time>
      </trkpt>
      <trkpt lat="45.95666" lon="4.40863">
        <ele>658.5</ele>
        <time>2021-12-16T22:34:53Z</time>
      </trkpt>
      <trkpt lat="45.95734" lon="4.40852">
        <ele>665.4</ele>
        <time>2021-12-16T22:35:05Z</time>
      </trkpt>
      <trkpt lat="45.95797" lon="4.40878">
        <ele>664.4</ele>
        <time>2021-12-16T22:35:07Z</time>
      </trkpt>
      <trkpt lat="45.95861" lon="4.40935">
        <ele>661.4</ele>
        <time>2021-12-16T22:35:12Z</time>
      </trkpt>
      <trkpt lat="45.95894" lon="4.40962">
        <ele>660.1</ele>
        <time>2021-12-16T22:35:30Z</time>
      </trkpt>
      <trkpt lat="45.95931" lon="4.40942">
        <ele>666.5</ele>
        <time>2021-12-16T22:35:42Z</time>
      </trkpt>
      <trkpt lat="45.95934" lon="4.40874">
        <ele>677.5</ele>
        <time>2021-12-16T22:36:01Z</time>
      </trkpt>
      <trkpt lat="45.9589" lon="4.40789">
        <ele>687.1</ele>
        <time>2021-12-16T22:36:11Z</time>
      </trkpt>
      <trkpt lat="45.95899" lon="4.40727">
        <ele>679</ele>
        <time>2021-12-16T22:36:26Z</time>
      </trkpt>
      <trkpt lat="45.95884" lon="4.40672">
        <ele>673.6</ele>
        <time>2021-12-16T22:36:36Z</time>
      </trkpt>
      <trkpt lat="45.95854" lon="4.40584">
        <ele>672.1</ele>
        <time>2021-12-16T22:36:43Z</time>
      </trkpt>
      <trkpt lat="45.9586" lon="4.40549">
        <ele>668.5</ele>
        <time>2021-12-16T22:36:50Z</time>
      </trkpt>
      <trkpt lat="45.95894" lon="4.40573">
        <ele>654.7</ele>
        <time>2021-12-16T22:36:58Z</time>
      </trkpt>
      <trkpt lat="45.95985" lon="4.40618">
        <ele>628.3</ele>
        <time>2021-12-16T22:37:11Z</time>
      </trkpt>
      <trkpt lat="45.96085" lon="4.407">
        <ele>617.3</ele>
        <time>2021-12-16T22:37:24Z</time>
      </trkpt>
      <trkpt lat="45.96133" lon="4.40721">
        <ele>603.3</ele>
        <time>2021-12-16T22:37:33Z</time>
      </trkpt>
      <trkpt lat="45.96188" lon="4.40766">
        <ele>590</ele>
        <time>2021-12-16T22:37:46Z</time>
      </trkpt>
      <trkpt lat="45.96279" lon="4.40788">
        <ele>550.2</ele>
        <time>2021-12-16T22:37:48Z</time>
      </trkpt>
      <trkpt lat="45.96314" lon="4.40873">
        <ele>542.7</ele>
        <time>2021-12-16T22:38:03Z</time>
      </trkpt>
      <trkpt lat="45.96318" lon="4.40927">
        <ele>538.8</ele>
        <time>2021-12-16T22:38:07Z</time>
      </trkpt>
      <trkpt lat="45.963" lon="4.40979">
        <ele>535.4</ele>
        <time>2021-12-16T22:38:26Z</time>
      </trkpt>
      <trkpt lat="45.96292" lon="4.40977">
        <ele>535.7</ele>
        <time>2021-12-16T22:38:28Z</time>
      </trkpt>
      <trkpt lat="45.96286" lon="4.40979">
        <ele>535.8</ele>
        <time>2021-12-16T22:38:34Z</time>
      </trkpt>
      <trkpt lat="45.96257" lon="4.41006">
        <ele>535.2</ele>
        <time>2021-12-16T22:38:51Z</time>
      </trkpt>
      <trkpt lat="45.96249" lon="4.41017">
        <ele>534.3</ele>
        <time>2021-12-16T22:38:59Z</time>
      </trkpt>
      <trkpt lat="45.96231" lon="4.41046">
        <ele>534.3</ele>
        <time>2021-12-16T22:39:14Z</time>
      </trkpt>
      <trkpt lat="45.96167" lon="4.41184">
        <ele>532.2</ele>
        <time>2021-12-16T22:39:24Z</time>
      </trkpt>
      <trkpt lat="45.96155" lon="4.41216">
        <ele>531.4</ele>
        <time>2021-12-16T22:39:26Z</time>
      </trkpt>
      <trkpt lat="45.96149" lon="4.41245">
        <ele>527.8</ele>
        <time>2021-12-16T22:39:30Z</time>
      </trkpt>
      <trkpt lat="45.96132" lon="4.41329">
        <ele>518.1</ele>
        <time>2021-12-16T22:39:32Z</time>
      </trkpt>
      <trkpt lat="45.96109" lon="4.41415">
        <ele>511.3</ele>
        <time>2021-12-16T22:39:49Z</time>
      </trkpt>
      <trkpt lat="45.96102" lon="4.41435">
        <ele>510.3</ele>
        <time>2021-12-16T22:40:04Z</time>
      </trkpt>
      <trkpt lat="45.96086" lon="4.4147">
        <ele>509</ele>
        <time>2021-12-16T22:40:16Z</time>
      </trkpt>
      <trkpt lat="45.9608" lon="4.41478">
        <ele>508.6</ele>
        <time>2021-12-16T22:40:35Z</time>
      </trkpt>
      <trkpt lat="45.96057" lon="4.41501">
        <ele>507.2</ele>
        <time>2021-12-16T22:40:38Z</time>
      </trkpt>
      <trkpt lat="45.96051" lon="4.41512">
        <ele>508.6</ele>
        <time>2021-12-16T22:40:55Z</time>
      </trkpt>
      <trkpt lat="45.96005" lon="4.41505">
        <ele>506</ele>
        <time>2021-12-16T22:41:00Z</time>
      </trkpt>
      <trkpt lat="45.95905" lon="4.41561">
        <ele>502.3</ele>
        <time>2021-12-16T22:41:05Z</time>
      </trkpt>
      <trkpt lat="45.95808" lon="4.41651">
        <ele>496.2</ele>
        <time>2021-12-16T22:41:19Z</time>
      </trkpt>
      <trkpt lat="45.95784" lon="4.41706">
        <ele>497.1</ele>
        <time>2021-12-16T22:41:37Z</time>
      </trkpt>
      <trkpt lat="45.95754" lon="4.41764">
        <ele>494.3</ele>
        <time>2021-12-16T22:41:49Z</time>
      </trkpt>
      <trkpt lat="45.95712" lon="4.41876">
        <ele>492</ele>
        <time>2021-12-16T22:42:01Z</time>
      </trkpt>
      <trkpt lat="45.95544" lon="4.42116">
        <ele>480.3</ele>
        <time>2021-12-16T22:42:16Z</time>
      </trkpt>
      <trkpt lat="45.95394" lon="4.42158">
        <ele>478.7</ele>
        <time>2021-12-16T22:42:26Z</time>
      </trkpt>
      <trkpt lat="45.95397" lon="4.42158">
        <ele>478.8</ele>
        <time>2021-12-16T22:42:38Z</time>
      </trkpt>
      <trkpt lat="45.95397" lon="4.42152">
        <ele>477</ele>
        <time>2021-12-16T22:42:55Z</time>
      </trkpt>
      <trkpt lat="45.95393" lon="4.42149">
        <ele>475.8</ele>
        <time>2021-12-16T22:43:14Z</time>
      </trkpt>
      <trkpt lat="45.9537" lon="4.42138">
        <ele>472.3</ele>
        <time>2021-12-16T22:43:16Z</time>
      </trkpt>
      <trkpt lat="45.95349" lon="4.42121">
        <ele>470.9</ele>
        <time>2021-12-16T22:43:25Z</time>
      </trkpt>
      <trkpt lat="45.95321" lon="4.42115">
        <ele>470</ele>
        <time>2021-12-16T22:43:40Z</time>
      </trkpt>
      <trkpt lat="45.95298" lon="4.42099">
        <ele>471</ele>
        <time>2021-12-16T22:43:58Z</time>
      </trkpt>
      <trkpt lat="45.95291" lon="4.42096">
        <ele>471.4</ele>
        <time>2021-12-16T22:44:16Z</time>
      </trkpt>
      <trkpt lat="45.95277" lon="4.42096">
        <ele>471.7</ele>
        <time>2021-12-16T22:44:19Z</time>
      </trkpt>
      <trkpt lat="45.95257" lon="4.42092">
        <ele>473.9</ele>
        <time>2021-12-16T22:44:27Z</time>
      </trkpt>
      <trkpt lat="45.95241" lon="4.421">
        <ele>473.8</ele>
        <time>2021-12-16T22:44:36Z</time>
      </trkpt>
      <trkpt lat="45.95231" lon="4.42103">
        <ele>474.4</ele>
        <time>2021-12-16T22:44:47Z</time>
      </trkpt>
      <trkpt lat="45.95202" lon="4.42104">
        <ele>475.2</ele>
        <time>2021-12-16T22:45:00Z</time>
      </trkpt>
      <trkpt lat="45.95197" lon="4.42103">
        <ele>475.5</ele>
        <time>2021-12-16T22:45:06Z</time>
      </trkpt>
      <trkpt lat="45.95144" lon="4.42075">
        <ele>478.1</ele>
        <time>2021-12-16T22:45:22Z</time>
      </trkpt>
      <trkpt lat="45.95114" lon="4.42055">
        <ele>479.1</ele>
        <time>2021-12-16T22:45:40Z</time>
      </trkpt>
      <trkpt lat="45.95104" lon="4.42047">
        <ele>478</ele>
        <time>2021-12-16T22:45:59Z</time>
      </trkpt>
      <trkpt lat="45.95096" lon="4.42036">
        <ele>476.6</ele>
        <time>2021-12-16T22:46:06Z</time>
      </trkpt>
      <trkpt lat="45.95091" lon="4.42046">
        <ele>476.4</ele>
        <time>2021-12-16T22:46:20Z</time>
      </trkpt>
      <trkpt lat="45.95083" lon="4.42065">
        <ele>475.7</ele>
        <time>2021-12-16T22:46:23Z</time>
      </trkpt>
      <trkpt lat="45.95069" lon="4.42113">
        <ele>470.3</ele>
        <time>2021-12-16T22:46:35Z</time>
      </trkpt>
      <trkpt lat="45.95059" lon="4.42166">
        <ele>465</ele>
        <time>2021-12-16T22:46:50Z</time>
      </trkpt>
      <trkpt lat="45.95032" lon="4.42276">
        <ele>459.1</ele>
        <time>2021-12-16T22:46:53Z</time>
      </trkpt>
      <trkpt lat="45.9502" lon="4.42302">
        <ele>458.5</ele>
        <time>2021-12-16T22:47:07Z</time>
      </trkpt>
      <trkpt lat="45.94988" lon="4.42357">
        <ele>456.7</ele>
        <time>2021-12-16T22:47:19Z</time>
      </trkpt>
      <trkpt lat="45.94979" lon="4.4238">
        <ele>456.6</ele>
        <time>2021-12-16T22:47:27Z</time>
      </trkpt>
      <trkpt lat="45.94954" lon="4.42461">
        <ele>457.1</ele>
        <time>2021-12-16T22:47:31Z</time>
      </trkpt>
      <trkpt lat="45.9493" lon="4.42523">
        <ele>455.2</ele>
        <time>2021-12-16T22:47:50Z</time>
      </trkpt>
      <trkpt lat="45.94909" lon="4.42554">
        <ele>454</ele>
        <time>2021-12-16T22:48:02Z</time>
      </trkpt>
      <trkpt lat="45.94889" lon="4.42575">
        <ele>453.3</ele>
        <time>2021-12-16T22:48:04Z</time>
      </trkpt>
      <trkpt lat="45.94888" lon="4.42584">
        <ele>453.9</ele>
        <time>2021-12-16T22:48:13Z</time>
      </trkpt>
      <trkpt lat="45.94838" lon="4.4272">
        <ele>459</ele>
        <time>2021-12-16T22:48:17Z</time>
      </trkpt>
      <trkpt lat="45.94791" lon="4.42794">
        <ele>461.6</ele>
        <time>2021-12-16T22:48:19Z</time>
      </trkpt>
      <trkpt lat="45.94788" lon="4.42799">
        <ele>462</ele>
        <time>2021-12-16T22:48:39Z</time>
      </trkpt>
      <trkpt lat="45.94787" lon="4.42808">
        <ele>463.9</ele>
        <time>2021-12-16T22:48:49Z</time>
      </trkpt>
      <trkpt lat="45.94768" lon="4.42829">
        <ele>464</ele>
        <time>2021-12-16T22:48:53Z</time>
      </trkpt>
      <trkpt lat="45.94754" lon="4.42851">
        <ele>465.1</ele>
        <time>2021-12-16T22:48:58Z</time>
      </trkpt>
      <trkpt lat="45.94746" lon="4.42872">
        <ele>465.6</ele>
        <time>2021-12-16T22:49:10Z</time>
      </trkpt>
      <trkpt lat="45.94758" lon="4.42883">
        <ele>470</ele>
        <time>2021-12-16T22:49:28Z</time>
      </trkpt>
      <trkpt lat="45.9476" lon="4.42882">
        <ele>470.5</ele>
        <time>2021-12-16T22:49:46Z</time>
      </trkpt>
      <trkpt lat="45.94776" lon="4.42891">
        <ele>476.2</ele>
        <time>2021-12-16T22:50:02Z</time>
      </trkpt>
      <trkpt lat="45.94779" lon="4.42912">
        <ele>475</ele>
        <time>2021-12-16T22:50:21Z</time>
      </trkpt>
      <trkpt lat="45.94786" lon="4.42928">
        <ele>475.6</ele>
        <time>2021-12-16T22:50:35Z</time>
      </trkpt>
      <trkpt lat="45.94792" lon="4.42949">
        <ele>475.2</ele>
        <time>2021-12-16T22:50:46Z</time>
      </trkpt>
      <trkpt lat="45.94804" lon="4.43001">
        <ele>470.8</ele>
        <time>2021-12-16T22:50:56Z</time>
      </trkpt>
      <trkpt lat="45.94805" lon="4.4302">
        <ele>469.6</ele>
        <time>2021-12-16T22:51:08Z</time>
      </trkpt>
      <trkpt lat="45.94803" lon="4.43031">
        <ele>469.7</ele>
        <time>2021-12-16T22:51:23Z</time>
      </trkpt>
      <trkpt lat="45.94792" lon="4.43043">
        <ele>473.2</ele>
        <time>2021-12-16T22:51:31Z</time>
      </trkpt>
      <trkpt lat="45.94778" lon="4.43037">
        <ele>473.9</ele>
        <time>2021-12-16T22:51:51Z</time>
      </trkpt>
      <trkpt lat="45.94756" lon="4.43006">
        <ele>471.6</ele>
        <time>2021-12-16T22:52:11Z</time>
      </trkpt>
      <trkpt lat="45.94742" lon="4.42998">
        <ele>471.7</ele>
        <time>2021-12-16T22:52:18Z</time>
      </trkpt>
      <trkpt lat="45.9472" lon="4.42997">
        <ele>474.1</ele>
        <time>2021-12-16T22:52:25Z</time>
      </trkpt>
      <trkpt lat="45.94716" lon="4.43">
        <ele>474.4</ele>
        <time>2021-12-16T22:52:30Z</time>
      </trkpt>
      <trkpt lat="45.94688" lon="4.43029">
        <ele>476.8</ele>
        <time>2021-12-16T22:52:46Z</time>
      </trkpt>
      <trkpt lat="45.9467" lon="4.43044">
        <ele>477.1</ele>
        <time>2021-12-16T22:53:01Z</time>
      </trkpt>
      <trkpt lat="45.94655" lon="4.43063">
        <ele>477.1</ele>
        <time>2021-12-16T22:53:17Z</time>
      </trkpt>
      <trkpt lat="45.94652" lon="4.43072">
        <ele>477.7</ele>
        <time>2021-12-16T22:53:22Z</time>
      </trkpt>
    </trkseg>
  </trk>
</gpx>